CPA74 RPVA-VHHH

Flight info

Callsign CPA74
Flight time N/A
Altitude 36000
Route ARREX5R ARREX B462 MIA W16 AVMUP A461 NOMAN V533 DAKTO V525 BETTY
Aircraft A320/M-SDE3FGHIRWY/LB1

Departure

Time 2026-04-17 11:34
Airport Daniel Z. Romualdez Airport (RPVA)

Arrival

Time N/A
Airport Hong Kong International Airport (VHHH)
Time Latitude Longitude Altitude Speed Heading
2026-04-17 11:10 11.22684 125.02653 -7 ft 0 kts 308°
2026-04-17 11:26 11.22683 125.02654 12 ft 1 kts 308°
2026-04-17 11:26 11.22674 125.02667 9 ft 3 kts 289°
2026-04-17 11:26 11.22672 125.02681 12 ft 3 kts 231°
2026-04-17 11:26 11.22680 125.02688 16 ft 1 kts 183°
2026-04-17 11:27 11.22681 125.02688 16 ft 0 kts 182°
2026-04-17 11:28 11.22678 125.02688 12 ft 1 kts 182°
2026-04-17 11:29 11.22666 125.02687 12 ft 2 kts 182°
2026-04-17 11:29 11.22644 125.02686 13 ft 4 kts 183°
2026-04-17 11:29 11.22612 125.02685 12 ft 5 kts 183°
2026-04-17 11:29 11.22576 125.02701 12 ft 6 kts 133°
2026-04-17 11:30 11.22562 125.02741 16 ft 6 kts 113°
2026-04-17 11:30 11.22525 125.02758 14 ft 7 kts 179°
2026-04-17 11:30 11.22472 125.02757 13 ft 9 kts 184°
2026-04-17 11:30 11.22404 125.02753 13 ft 11 kts 184°
2026-04-17 11:31 11.22322 125.02747 13 ft 13 kts 184°
2026-04-17 11:31 11.22230 125.02740 14 ft 14 kts 184°
2026-04-17 11:31 11.22128 125.02733 14 ft 15 kts 184°
2026-04-17 11:31 11.22013 125.02725 14 ft 18 kts 184°
2026-04-17 11:32 11.21889 125.02724 12 ft 14 kts 168°
2026-04-17 11:32 11.21807 125.02730 12 ft 11 kts 234°
2026-04-17 11:32 11.21827 125.02714 12 ft 4 kts
2026-04-17 11:32 11.21833 125.02714 12 ft 0 kts
2026-04-17 11:33 11.22120 125.02733 14 ft 84 kts
2026-04-17 11:33 11.22959 125.02787 11 ft 154 kts
2026-04-17 11:34 11.24044 125.02853 659 ft 146 kts
2026-04-17 11:34 11.25068 125.02921 1242 ft 153 kts
2026-04-17 11:34 11.26170 125.02996 1829 ft 163 kts
2026-04-17 11:34 11.27392 125.03081 2225 ft 192 kts
2026-04-17 11:35 11.28810 125.03178 2701 ft 217 kts
2026-04-17 11:35 11.30406 125.03284 3291 ft 242 kts
2026-04-17 11:35 11.32170 125.03397 4010 ft 262 kts
2026-04-17 11:35 11.33969 125.03097 4939 ft 267 kts 333°
2026-04-17 11:36 11.35504 125.02005 5889 ft 272 kts 318°
2026-04-17 11:36 11.36849 125.00605 6780 ft 280 kts 313°
2026-04-17 11:36 11.38152 124.99099 7640 ft 286 kts 312°
2026-04-17 11:36 11.39488 124.97572 8565 ft 290 kts 313°
2026-04-17 11:37 11.40881 124.96054 9490 ft 295 kts 315°
2026-04-17 11:37 11.42330 124.94550 10108 ft 300 kts 316°
2026-04-17 11:37 11.43862 124.93014 10336 ft 319 kts 317°
2026-04-17 11:37 11.45510 124.91394 10469 ft 339 kts 317°
2026-04-17 11:38 11.47239 124.89712 10854 ft 347 kts 317°
2026-04-17 11:38 11.48998 124.88007 11378 ft 351 kts 317°
2026-04-17 11:38 11.50776 124.86286 11933 ft 354 kts 317°
2026-04-17 11:38 11.52565 124.84551 12492 ft 357 kts 317°
2026-04-17 11:39 11.54371 124.82797 13038 ft 359 kts 317°
2026-04-17 11:39 11.56185 124.81031 13580 ft 362 kts 317°
2026-04-17 11:39 11.57914 124.79149 14055 ft 365 kts 308°
2026-04-17 11:39 11.59265 124.76947 14516 ft 368 kts 298°
2026-04-17 11:40 11.60467 124.74628 14975 ft 371 kts 299°
2026-04-17 11:40 11.61668 124.72328 15435 ft 373 kts 298°
2026-04-17 11:40 11.62893 124.69988 15904 ft 376 kts 298°
2026-04-17 11:40 11.64128 124.67628 16364 ft 378 kts 299°
2026-04-17 11:41 11.65373 124.65253 16824 ft 381 kts 299°
2026-04-17 11:41 11.66632 124.62857 17261 ft 384 kts 300°
2026-04-17 11:41 11.67899 124.60449 17720 ft 386 kts 298°
2026-04-17 11:41 11.69172 124.58026 18168 ft 390 kts 300°
2026-04-17 11:42 11.70458 124.55571 18551 ft 392 kts 299°
2026-04-17 11:42 11.71745 124.53110 18943 ft 395 kts 300°
2026-04-17 11:42 11.73043 124.50630 19336 ft 398 kts 299°
2026-04-17 11:42 11.74349 124.48135 19751 ft 400 kts 300°
2026-04-17 11:43 11.75664 124.45618 20138 ft 403 kts 299°
2026-04-17 11:43 11.76986 124.43089 20547 ft 405 kts 299°
2026-04-17 11:43 11.78314 124.40544 20967 ft 407 kts 299°
2026-04-17 11:43 11.79651 124.37985 21376 ft 410 kts 299°
2026-04-17 11:44 11.80997 124.35406 21749 ft 413 kts 298°
2026-04-17 11:44 11.82349 124.32812 22157 ft 415 kts 300°
2026-04-17 11:44 11.83709 124.30204 22539 ft 418 kts 299°
2026-04-17 11:44 11.85079 124.27578 22904 ft 420 kts 300°
2026-04-17 11:45 11.86627 124.25043 23274 ft 421 kts 309°
2026-04-17 11:45 11.88491 124.22722 23603 ft 423 kts 311°
2026-04-17 11:45 11.90378 124.20412 23899 ft 425 kts 310°
2026-04-17 11:45 11.92274 124.18086 24185 ft 427 kts 310°
2026-04-17 11:46 11.94179 124.15750 24468 ft 430 kts 311°
2026-04-17 11:46 11.96095 124.13398 24747 ft 432 kts 311°
2026-04-17 11:46 11.98024 124.11027 25028 ft 434 kts 310°
2026-04-17 11:46 11.99956 124.08646 25321 ft 435 kts 310°
2026-04-17 11:47 12.01892 124.06262 25586 ft 438 kts 310°
2026-04-17 11:47 12.03844 124.03861 25851 ft 440 kts 310°
2026-04-17 11:47 12.05800 124.01450 26128 ft 442 kts 310°
2026-04-17 11:47 12.07765 123.99027 26390 ft 443 kts 310°
2026-04-17 11:48 12.09739 123.96596 26659 ft 445 kts 310°
2026-04-17 11:48 12.11723 123.94153 26868 ft 448 kts 310°
2026-04-17 11:48 12.13722 123.91697 27136 ft 450 kts 310°
2026-04-17 11:48 12.15726 123.89235 27409 ft 451 kts 310°
2026-04-17 11:49 12.17734 123.86766 27664 ft 453 kts 310°
2026-04-17 11:49 12.19752 123.84277 27887 ft 455 kts 309°
2026-04-17 11:49 12.21769 123.81781 28126 ft 457 kts 309°
2026-04-17 11:49 12.23802 123.79263 28363 ft 459 kts 309°
2026-04-17 11:50 12.25837 123.76741 28612 ft 461 kts 309°
2026-04-17 11:50 12.27883 123.74208 28864 ft 462 kts 309°
2026-04-17 11:50 12.29935 123.71673 29134 ft 464 kts 309°
2026-04-17 11:50 12.31997 123.69132 29457 ft 464 kts 309°
2026-04-17 11:51 12.34051 123.66599 29844 ft 462 kts 309°
2026-04-17 11:51 12.36102 123.64068 30193 ft 461 kts 309°
2026-04-17 11:51 12.38146 123.61549 30514 ft 460 kts 309°
2026-04-17 11:51 12.40206 123.59050 30837 ft 459 kts 310°
2026-04-17 11:52 12.42273 123.56569 31164 ft 458 kts 310°
2026-04-17 11:52 12.43646 123.54930 31384 ft 457 kts 310°
2026-04-17 11:52 12.45715 123.52464 31713 ft 456 kts 310°
2026-04-17 11:52 12.47778 123.49998 32040 ft 456 kts 310°
2026-04-17 11:53 12.49832 123.47535 32381 ft 455 kts 310°
2026-04-17 11:53 12.51879 123.45071 32703 ft 454 kts 310°
2026-04-17 11:53 12.53918 123.42611 33039 ft 453 kts 310°
2026-04-17 11:53 12.55957 123.40154 33368 ft 452 kts 310°
2026-04-17 11:54 12.57987 123.37706 33713 ft 451 kts 310°
2026-04-17 11:54 12.60014 123.35259 33984 ft 450 kts 310°
2026-04-17 11:54 12.62039 123.32813 34234 ft 450 kts 310°
2026-04-17 11:54 12.64064 123.30370 34494 ft 449 kts 310°
2026-04-17 11:55 12.66084 123.27934 34730 ft 449 kts 310°
2026-04-17 11:55 12.68104 123.25498 34947 ft 449 kts 310°
2026-04-17 11:55 12.70126 123.23058 35188 ft 448 kts 310°
2026-04-17 11:55 12.72143 123.20625 35426 ft 448 kts 310°
2026-04-17 11:56 12.74162 123.18192 35642 ft 447 kts 310°
2026-04-17 11:56 12.76174 123.15761 35843 ft 448 kts 310°
2026-04-17 11:56 12.80215 123.10868 35932 ft 453 kts 310°
2026-04-17 11:57 12.84299 123.05925 35931 ft 455 kts 310°
2026-04-17 11:57 12.88368 123.00999 35931 ft 455 kts 310°
2026-04-17 11:58 12.92473 122.96037 35934 ft 455 kts 310°
2026-04-17 11:58 12.96564 122.91089 35934 ft 455 kts 310°
2026-04-17 11:59 13.00659 122.86135 35937 ft 455 kts 310°
2026-04-17 11:59 13.04782 122.81145 35935 ft 463 kts 310°
2026-04-17 12:00 13.08980 122.76042 35938 ft 472 kts 310°
2026-04-17 12:00 13.13229 122.70867 35937 ft 475 kts 310°
2026-04-17 12:01 13.17499 122.65676 35934 ft 475 kts 310°
2026-04-17 12:01 13.21745 122.60533 35934 ft 476 kts 310°
2026-04-17 12:02 13.26021 122.55346 35942 ft 476 kts 310°
2026-04-17 12:02 13.30298 122.50147 35952 ft 477 kts 310°
2026-04-17 12:03 13.34574 122.44934 35949 ft 477 kts 310°
2026-04-17 12:03 13.38854 122.39717 35951 ft 477 kts 310°
2026-04-17 12:04 13.43129 122.34506 35959 ft 477 kts 310°
2026-04-17 12:04 13.47409 122.29284 35958 ft 477 kts 310°
2026-04-17 12:05 13.51683 122.24068 35957 ft 477 kts 310°
2026-04-17 12:05 13.55952 122.18842 35958 ft 477 kts 310°
2026-04-17 12:06 13.60225 122.13624 35956 ft 477 kts 310°
2026-04-17 12:06 13.64503 122.08406 35956 ft 477 kts 310°
2026-04-17 12:07 13.68776 122.03184 35956 ft 477 kts 310°
2026-04-17 12:07 13.73047 121.97953 35954 ft 477 kts 310°
2026-04-17 12:08 13.77313 121.92720 35955 ft 477 kts 310°
2026-04-17 12:08 13.81558 121.87513 35957 ft 478 kts 310°
2026-04-17 12:09 13.85825 121.82279 35963 ft 477 kts 310°
2026-04-17 12:09 13.90096 121.77047 35965 ft 477 kts 310°
2026-04-17 12:10 13.94361 121.71812 35966 ft 477 kts 310°
2026-04-17 12:10 13.98624 121.66571 35964 ft 477 kts 310°
2026-04-17 12:11 14.02883 121.61322 35965 ft 478 kts 310°
2026-04-17 12:12 14.09285 121.53452 35967 ft 478 kts 310°
2026-04-17 12:12 14.13557 121.48189 35971 ft 478 kts 310°
2026-04-17 12:13 14.17814 121.42934 35964 ft 478 kts 310°
2026-04-17 12:13 14.22077 121.37678 35960 ft 477 kts 310°
2026-04-17 12:14 14.26335 121.32432 35958 ft 477 kts 310°
2026-04-17 12:14 14.30592 121.27176 35950 ft 477 kts 310°
2026-04-17 12:15 14.34855 121.21915 35946 ft 477 kts 310°
2026-04-17 12:15 14.39106 121.16658 35948 ft 477 kts 310°
2026-04-17 12:16 14.43353 121.11403 35953 ft 476 kts 310°
2026-04-17 12:16 14.47595 121.06147 35951 ft 476 kts 310°
2026-04-17 12:17 14.52194 121.01273 35944 ft 475 kts 324°
2026-04-17 12:17 14.57694 120.97509 35946 ft 474 kts 327°
2026-04-17 12:18 14.63185 120.93794 35946 ft 475 kts 327°
2026-04-17 12:18 14.68739 120.90022 35929 ft 475 kts 326°
2026-04-17 12:19 14.74259 120.86275 35929 ft 475 kts 327°
2026-04-17 12:19 14.79780 120.82531 35928 ft 475 kts 326°
2026-04-17 12:20 14.85273 120.78811 35929 ft 475 kts 326°
2026-04-17 12:20 14.90792 120.75066 35936 ft 475 kts 326°
2026-04-17 12:21 14.96309 120.71306 35937 ft 474 kts 326°
2026-04-17 12:21 15.01821 120.67555 35940 ft 474 kts 326°
2026-04-17 12:22 15.07332 120.63796 35944 ft 474 kts 326°
2026-04-17 12:22 15.12843 120.60041 35949 ft 474 kts 326°
2026-04-17 12:23 15.18349 120.56298 35947 ft 474 kts 326°
2026-04-17 12:23 15.24028 120.52831 35945 ft 474 kts 330°
2026-04-17 12:24 15.29879 120.49667 35941 ft 474 kts 332°
2026-04-17 12:24 15.35730 120.46512 35941 ft 474 kts 331°
2026-04-17 12:25 15.41540 120.43260 35946 ft 474 kts 330°
2026-04-17 12:25 15.47327 120.39969 35949 ft 474 kts 330°
2026-04-17 12:26 15.53110 120.36690 35964 ft 474 kts 330°
2026-04-17 12:26 15.58908 120.33428 35961 ft 474 kts 330°
2026-04-17 12:27 15.64661 120.30191 35958 ft 473 kts 330°
2026-04-17 12:27 15.70489 120.26897 35960 ft 473 kts 330°
2026-04-17 12:28 15.76265 120.23629 35961 ft 473 kts 329°
2026-04-17 12:28 15.82050 120.20360 35961 ft 472 kts 330°
2026-04-17 12:29 15.87787 120.17117 35953 ft 472 kts 330°
2026-04-17 12:29 15.93557 120.13845 35958 ft 472 kts 329°
2026-04-17 12:30 15.99329 120.10576 35963 ft 472 kts 330°
2026-04-17 12:30 16.05104 120.07308 35960 ft 472 kts 330°
2026-04-17 12:31 16.10879 120.04037 35970 ft 472 kts 329°
2026-04-17 12:31 16.16637 120.00762 35971 ft 471 kts 329°
2026-04-17 12:32 16.22389 119.97492 35967 ft 471 kts 330°
2026-04-17 12:32 16.28144 119.94222 35965 ft 470 kts 329°
2026-04-17 12:33 16.32914 119.91509 35973 ft 470 kts 330°
2026-04-17 12:33 16.38651 119.88252 35970 ft 469 kts 329°
2026-04-17 12:34 16.44387 119.84986 35966 ft 469 kts 329°
2026-04-17 12:34 16.50121 119.81719 35969 ft 469 kts 330°
2026-04-17 12:35 16.55845 119.78454 35975 ft 469 kts 330°
2026-04-17 12:35 16.61565 119.75193 35973 ft 468 kts 330°
2026-04-17 12:37 16.84430 119.62102 35982 ft 468 kts 330°
2026-04-17 12:38 16.90104 119.58857 35984 ft 468 kts 329°
2026-04-17 12:38 16.95814 119.55594 35982 ft 468 kts 329°
2026-04-17 12:39 17.01559 119.52305 35981 ft 467 kts 329°
2026-04-17 12:39 17.07215 119.49054 35981 ft 467 kts 329°
2026-04-17 12:40 17.12907 119.45777 35986 ft 467 kts 329°
2026-04-17 12:40 17.18609 119.42500 35982 ft 467 kts 329°
2026-04-17 12:41 17.24304 119.39232 35984 ft 467 kts 329°
2026-04-17 12:41 17.29996 119.35966 35984 ft 467 kts 329°
2026-04-17 12:42 17.35691 119.32687 35977 ft 466 kts 329°
2026-04-17 12:42 17.41381 119.29396 35977 ft 466 kts 329°
2026-04-17 12:43 17.47067 119.26119 35983 ft 467 kts 329°
2026-04-17 12:43 17.52761 119.22843 35984 ft 467 kts 329°
2026-04-17 12:44 17.58460 119.19553 35985 ft 467 kts 329°
2026-04-17 12:44 17.64146 119.16254 35985 ft 467 kts 329°
2026-04-17 12:45 17.69845 119.12957 35988 ft 468 kts 329°
2026-04-17 12:45 17.75547 119.09665 35986 ft 468 kts 329°
2026-04-17 12:46 17.81251 119.06362 35997 ft 468 kts 329°
2026-04-17 12:46 17.86918 119.03076 35995 ft 468 kts 329°
2026-04-17 12:47 17.92616 118.99769 35995 ft 468 kts 329°
2026-04-17 12:47 17.98276 118.96380 35993 ft 467 kts 323°
2026-04-17 12:48 18.02993 118.91780 35997 ft 463 kts 311°
2026-04-17 12:48 18.07387 118.86842 35996 ft 463 kts 311°
2026-04-17 12:49 18.11798 118.81907 36008 ft 463 kts 311°
2026-04-17 12:49 18.16209 118.76968 36006 ft 463 kts 311°
2026-04-17 12:50 18.20613 118.72027 36003 ft 462 kts 311°
2026-04-17 12:50 18.25012 118.67091 36001 ft 462 kts 311°
2026-04-17 12:51 18.29397 118.62150 36006 ft 462 kts 311°
2026-04-17 12:51 18.33788 118.57209 36005 ft 462 kts 311°
2026-04-17 12:52 18.38210 118.52246 36002 ft 461 kts 311°
2026-04-17 12:52 18.42563 118.47339 36005 ft 461 kts 311°
2026-04-17 12:53 18.46949 118.42398 36004 ft 461 kts 311°
2026-04-17 12:53 18.51327 118.37457 36005 ft 461 kts 311°
2026-04-17 12:54 18.55700 118.32508 36010 ft 461 kts 311°
2026-04-17 12:54 18.60079 118.27557 36010 ft 461 kts 310°
2026-04-17 12:55 18.64451 118.22601 36014 ft 461 kts 310°
2026-04-17 12:55 18.68832 118.17641 36014 ft 461 kts 310°
2026-04-17 12:56 18.73201 118.12686 36008 ft 461 kts 310°
2026-04-17 12:56 18.77573 118.07731 36008 ft 461 kts 311°
2026-04-17 12:57 18.81944 118.02785 36009 ft 461 kts 311°
2026-04-17 12:57 18.86317 117.97837 36018 ft 460 kts 310°
2026-04-17 12:58 18.90647 117.92898 36016 ft 460 kts 310°
2026-04-17 12:58 18.95003 117.87918 36013 ft 459 kts 310°
2026-04-17 12:59 18.99349 117.82970 36010 ft 459 kts 310°
2026-04-17 12:59 19.03690 117.78034 36006 ft 458 kts 310°
2026-04-17 13:00 19.08025 117.73091 36003 ft 458 kts 310°
2026-04-17 13:00 19.12358 117.68153 36003 ft 458 kts 310°
2026-04-17 13:01 19.16687 117.63206 36006 ft 458 kts 310°
2026-04-17 13:01 19.20984 117.58283 36003 ft 458 kts 310°
2026-04-17 13:02 19.25337 117.53292 36010 ft 458 kts 310°
2026-04-17 13:02 19.29641 117.48366 36007 ft 458 kts 310°
2026-04-17 13:03 19.33968 117.43414 36015 ft 457 kts 310°
2026-04-17 13:03 19.38271 117.38481 35520 ft 454 kts 310°
2026-04-17 13:03 19.40412 117.36021 34792 ft 455 kts 310°
2026-04-17 13:04 19.42564 117.33549 34257 ft 455 kts 310°
2026-04-17 13:04 19.44714 117.31081 34051 ft 458 kts 310°
2026-04-17 13:04 19.46874 117.28597 33965 ft 459 kts 310°
2026-04-17 13:05 19.51158 117.23671 33989 ft 443 kts 310°
2026-04-17 13:05 19.55284 117.18923 33999 ft 435 kts 310°
2026-04-17 13:06 19.59379 117.14202 34001 ft 434 kts 309°
2026-04-17 13:06 19.63456 117.09494 33999 ft 433 kts 309°
2026-04-17 13:07 19.67526 117.04786 33989 ft 433 kts 309°
2026-04-17 13:07 19.71598 117.00082 34000 ft 433 kts 309°
2026-04-17 13:08 19.75671 116.95375 33993 ft 433 kts 309°
2026-04-17 13:08 19.79744 116.90661 33999 ft 433 kts 309°
2026-04-17 13:09 19.83811 116.85948 34001 ft 433 kts 309°
2026-04-17 13:09 19.87878 116.81228 34007 ft 433 kts 309°
2026-04-17 13:10 19.91947 116.76521 33998 ft 432 kts 309°
2026-04-17 13:10 19.95983 116.71841 34010 ft 432 kts 309°
2026-04-17 13:11 19.99924 116.67033 34007 ft 429 kts 301°
2026-04-17 13:11 20.02798 116.61527 34001 ft 425 kts 295°
2026-04-17 13:12 20.05100 116.56857 33993 ft 426 kts 295°
2026-04-17 13:12 20.09224 116.48514 34005 ft 425 kts 295°
2026-04-17 13:13 20.11970 116.42928 34008 ft 425 kts 295°
2026-04-17 13:13 20.14705 116.37385 34000 ft 425 kts 295°
2026-04-17 13:14 20.17462 116.31814 34010 ft 425 kts 295°
2026-04-17 13:14 20.20203 116.26245 33998 ft 425 kts 295°
2026-04-17 13:15 20.22936 116.20661 34012 ft 425 kts 295°
2026-04-17 13:15 20.25668 116.15090 34004 ft 425 kts 295°
2026-04-17 13:16 20.28401 116.09516 34002 ft 425 kts 295°
2026-04-17 13:16 20.31127 116.03947 34002 ft 425 kts 295°
2026-04-17 13:17 20.33863 115.98369 34001 ft 425 kts 295°
2026-04-17 13:17 20.36606 115.92770 34009 ft 425 kts 295°